Location: Borojevi?i
(45.0486°N, 16.2297°E)
Time: 09:10:42
(UTC+00:00)

Terra - Pass Details

Date: 08 August 2020
Orbit: 701 x 703 km, 98.2° (Epoch: 21 September)

Event Time Altitude Azimuth Distance (km) Brightness Sun altitude
Exits shadow 22:00:45 20° 261° (W) 1,591 3.7 -27.6°
Maximum altitude 22:01:10 20° 268° (W) 1,583 3.7 -27.7°
Drops below altitude 10° 22:04:42 10° 316° (NW) 2,179 5.1 -27.8°
Sets 22:07:31 0° 333° (NNW) 3,103 6.3 -28.0°
